TimeCST,TemperatureF,Dew PointF,Humidity,Sea Level PressureIn,VisibilityMPH,Wind Direction,Wind SpeedMPH,Gust SpeedMPH,PrecipitationIn,Events,Conditions,WindDirDegrees,DateUTC
12:53 AM,12.9,6.1,74,29.92,10.0,NNW,10.4,-,N/A,,Overcast,330,2012-01-13 06:53:00
1:53 AM,12.9,5.0,71,29.94,10.0,NNW,9.2,-,N/A,,Overcast,330,2012-01-13 07:53:00
2:53 AM,12.9,5.0,71,29.95,10.0,NNW,12.7,-,N/A,,Overcast,330,2012-01-13 08:53:00
3:53 AM,12.0,6.1,77,29.96,5.0,NNW,6.9,-,0.00,Snow,Light Snow,330,2012-01-13 09:53:00
4:53 AM,12.0,6.1,77,29.97,9.0,NNW,10.4,-,0.00,,Overcast,330,2012-01-13 10:53:00
5:53 AM,12.0,6.1,77,29.99,8.0,NNW,6.9,-,N/A,,Overcast,340,2012-01-13 11:53:00
6:53 AM,12.0,5.0,73,30.01,10.0,NNW,6.9,-,N/A,,Overcast,330,2012-01-13 12:53:00
7:53 AM,10.9,5.0,77,30.02,10.0,North,6.9,-,N/A,,Overcast,360,2012-01-13 13:53:00
8:53 AM,10.9,3.9,73,30.03,10.0,NNW,6.9,-,N/A,,Overcast,330,2012-01-13 14:53:00
9:53 AM,10.9,5.0,77,30.03,4.0,NW,5.8,-,0.00,Snow,Light Snow,310,2012-01-13 15:53:00
10:27 AM,10.4,5.0,79,29.98,1.5,NW,4.6,-,0.00,Snow,Light Snow,320,2012-01-13 16:27:00
10:44 AM,10.4,5.0,79,29.97,3.0,NNW,6.9,-,0.00,Snow,Light Snow,330,2012-01-13 16:44:00
10:53 AM,10.9,3.9,73,30.03,9.0,NW,4.6,-,0.00,,Overcast,320,2012-01-13 16:53:00
11:53 AM,12.0,3.9,70,30.02,3.0,Calm,Calm,-,0.00,Snow,Light Snow,0,2012-01-13 17:53:00
12:53 PM,12.0,3.9,70,30.02,8.0,West,8.1,-,0.00,,Overcast,260,2012-01-13 18:53:00
1:53 PM,12.0,3.9,70,30.01,5.0,Calm,Calm,-,0.00,Snow,Light Snow,0,2012-01-13 19:53:00
2:53 PM,12.9,3.9,67,30.01,10.0,Variable,3.5,-,0.00,,Overcast,0,2012-01-13 20:53:00
3:53 PM,12.0,3.0,67,30.03,10.0,WNW,6.9,-,N/A,,Overcast,300,2012-01-13 21:53:00
4:53 PM,10.9,3.0,70,30.04,10.0,WSW,5.8,-,N/A,,Overcast,240,2012-01-13 22:53:00
5:53 PM,9.0,3.0,77,30.04,10.0,SW,4.6,-,N/A,,Overcast,230,2012-01-13 23:53:00
6:20 PM,8.6,1.4,73,29.98,10.0,South,3.5,-,N/A,,Scattered Clouds,190,2012-01-14 00:20:00
6:53 PM,8.1,1.9,76,30.04,10.0,South,3.5,-,N/A,,Clear,190,2012-01-14 00:53:00
7:53 PM,7.0,1.9,80,30.04,10.0,Calm,Calm,-,N/A,,Clear,0,2012-01-14 01:53:00
8:53 PM,7.0,1.9,80,30.05,10.0,South,3.5,-,N/A,,Clear,170,2012-01-14 02:53:00
9:53 PM,6.1,1.0,80,30.04,10.0,SSE,4.6,-,N/A,,Partly Cloudy,150,2012-01-14 03:53:00
10:53 PM,8.1,3.0,80,30.05,10.0,SSE,3.5,-,N/A,,Overcast,160,2012-01-14 04:53:00
11:53 PM,8.1,3.0,80,30.04,10.0,Calm,Calm,-,N/A,,Overcast,0,2012-01-14 05:53:00